{"data":{"norad_id":66955,"intl_designator":"2025-287C","name":"HULIANWANG DIGUI-116","alt_names":[],"object_type":"PAYLOAD","status":"ACTIVE","operator":null,"country":"PRC","launch_date":"2025-12-08","launch_site_code":"TAISC","launch_vehicle":null,"mission":null,"orbit_class":"UNKNOWN","rcs_meters":null,"size_class":null,"mass_kg":null,"dimensions":null,"purposes":[],"wikipedia_slug":null,"has_3d_model":false,"image_url":null,"decayed_at":null,"tle_current":{"epoch":"2026-05-25T03:50:27.988224Z","epoch_age_seconds":57275,"freshness":"FRESH","line1":"1 66955U 25287C   26145.16004616  .00000033  00000+0  42743-4 0  9996","line2":"2 66955  86.4871 290.0615 0001583 113.0089 247.1212 13.24410185 22292","mean_motion":13.24410185,"eccentricity":0.0001583,"inclination_deg":86.4871,"raan_deg":290.0615,"arg_perigee_deg":113.0089,"mean_anomaly_deg":247.1212,"bstar":4.2743e-5,"rev_number":2229,"period_min":108.72764467603,"perigee_km":1166.7269418556,"apogee_km":1169.1160239713,"semimajor_km":7546.0584829135,"source":"CELESTRAK","updated_at":"2026-05-25T13:38:06.626198Z"}}}